EW9394 Weather Reports


Display with metric or nautical units.
time (UTC)temp
F
wind
direction
speed
MPH
gust
MPH
rain 1hr
in
rain 24hr
in
rain mn
in
humidity
%
barometer
mb
20260902113003 78 204 0.0 0.0 0.00 0.00 0.00 80 1016.8
20260902112459 78 204 0.0 0.0 0.00 0.00 0.00 80 1016.8
20260902111955 78 205 0.0 0.0 0.00 0.00 0.00 80 1016.9
20260902111451 79 205 0.0 0.0 0.00 0.00 0.00 79 1016.9
20260902110947 79 204 0.0 0.0 0.00 0.00 0.00 78 1016.8
20260902110443 79 201 0.0 0.0 0.00 0.00 0.00 78 1016.8
20260902105937 79 198 0.0 0.0 0.00 0.00 0.00 78 1016.8
20260902105432 79 204 0.0 0.0 0.00 0.00 0.00 79 1016.9
20260902104927 79 205 0.0 0.0 0.00 0.00 0.00 79 1016.8
20260902104423 79 202 0.0 0.0 0.00 0.00 0.00 79 1016.7
20260902103922 79 202 0.0 0.0 0.00 0.00 0.00 79 1016.7
20260902103418 79 205 0.0 0.0 0.00 0.00 0.00 79 1016.6
20260902102913 80 205 0.0 0.0 0.00 0.00 0.00 78 1016.6
20260902102410 80 199 0.0 0.0 0.00 0.00 0.00 77 1016.7
20260902101906 80 195 0.0 0.0 0.00 0.00 0.00 77 1016.8
20260902101401 80 200 0.0 0.0 0.00 0.00 0.00 77 1016.8
20260902100900 80 202 0.0 0.0 0.00 0.00 0.00 77 1016.8
20260902100359 80 201 0.0 0.0 0.00 0.00 0.00 77 1016.8
20260902095854 80 200 0.0 0.0 0.00 0.00 0.00 76 1016.9
20260902095349 80 200 0.0 0.0 0.00 0.00 0.00 75 1016.9
20260902094849 80 198 0.0 0.0 0.00 0.00 0.00 75 1016.8
20260902094345 80 197 0.0 0.0 0.00 0.00 0.00 75 1016.8
20260902093844 81 200 0.0 0.0 0.00 0.00 0.00 75 1016.6
20260902093340 81 194 0.0 0.0 0.00 0.00 0.00 74 1016.8
20260902092838 81 187 0.0 0.0 0.00 0.00 0.00 74 1016.8
20260902092334 81 202 0.0 0.0 0.00 0.00 0.00 74 1016.5
20260902091829 81 199 0.0 0.0 0.00 0.00 0.00 73 1016.7
20260902091324 81 198 0.0 0.0 0.00 0.00 0.00 73 1016.6
20260902090821 81 200 0.0 0.0 0.00 0.00 0.00 72 1016.2
20260902090320 82 199 0.0 0.0 0.00 0.00 0.00 72 1016.6
20260902085813 82 196 0.0 0.0 0.00 0.00 0.00 71 1016.5
20260902085309 82 199 0.0 0.0 0.00 0.00 0.00 71 1016.5
20260902084804 82 192 1.0 2.0 0.00 0.00 0.00 71 1016.4
20260902084301 82 198 0.0 0.0 0.00 0.00 0.00 71 1016.5
20260902083755 82 196 0.0 0.0 0.00 0.00 0.00 71 1016.3
20260902083250 82 203 0.0 1.0 0.00 0.00 0.00 70 1016.4
20260902082745 82 199 0.0 1.0 0.00 0.00 0.00 70 1016.6
20260902082242 82 192 0.0 1.0 0.00 0.00 0.00 70 1016.6
20260902081738 82 202 0.0 0.0 0.00 0.00 0.00 70 1016.3
20260902081233 83 180 0.0 1.0 0.00 0.00 0.00 70 1016.4
20260902080728 83 189 0.0 0.0 0.00 0.00 0.00 70 1016.4
20260902080225 83 190 0.0 0.0 0.00 0.00 0.00 70 1016.6
20260902075724 83 196 0.0 1.0 0.00 0.00 0.00 70 1016.4
20260902075220 83 184 3.0 5.0 0.00 0.00 0.00 70 1016.4
20260902074719 83 176 1.0 1.0 0.00 0.00 0.00 70 1016.4
20260902074216 83 184 1.0 1.0 0.00 0.00 0.00 70 1016.6
20260902073711 83 177 1.0 2.0 0.00 0.00 0.00 70 1016.4
20260902073207 84 186 1.0 1.0 0.00 0.00 0.00 69 1016.3
20260902072702 84 195 1.0 1.0 0.00 0.00 0.00 70 1016.2
20260902072158 84 178 1.0 1.0 0.00 0.00 0.00 69 1016.4
20260902071654 84 152 3.0 3.0 0.00 0.00 0.00 69 1016.5
20260902071149 84 193 1.0 2.0 0.00 0.00 0.00 69 1016.5
20260902070646 84 198 2.0 2.0 0.00 0.00 0.00 70 1016.4
20260902070145 84 175 1.0 2.0 0.00 0.00 0.00 70 1016.4
20260902065644 84 170 0.0 0.0 0.00 0.00 0.00 70 1016.5
20260902065140 84 204 1.0 1.0 0.00 0.00 0.00 70 1016.5
20260902064635 84 161 3.0 3.0 0.00 0.00 0.00 70 1016.4
20260902064130 84 159 4.0 6.0 0.00 0.00 0.00 70 1016.5
20260902063626 84 196 3.0 3.0 0.00 0.00 0.00 70 1016.4
20260902063120 84 187 3.0 6.0 0.00 0.00 0.00 70 1016.5
20260902062619 85 206 2.0 3.0 0.00 0.00 0.00 69 1016.5
20260902062115 85 186 4.0 7.0 0.00 0.00 0.00 69 1016.4
20260902061614 85 150 2.0 2.0 0.00 0.00 0.00 69 1016.5
20260902061110 85 200 3.0 3.0 0.00 0.00 0.00 68 1016.6
20260902060607 85 175 2.0 3.0 0.00 0.00 0.00 68 1016.5
20260902055558 85 185 1.0 2.0 0.00 0.00 0.00 68 1016.3
20260902055054 85 155 3.0 3.0 0.00 0.00 0.00 68 1016.4
20260902054548 85 216 3.0 3.0 0.00 0.00 0.00 68 1016.5
20260902054044 86 204 1.0 3.0 0.00 0.00 0.00 67 1016.4
20260902053539 86 218 3.0 3.0 0.00 0.00 0.00 67 1016.5
20260902053038 86 179 0.0 1.0 0.00 0.00 0.00 67 1016.4
20260902052533 86 205 3.0 3.0 0.00 0.00 0.00 66 1016.5
20260902052029 86 195 1.0 1.0 0.00 0.00 0.00 66 1016.4
20260902051529 86 204 2.0 3.0 0.00 0.00 0.00 66 1016.6
20260902051027 86 200 2.0 3.0 0.00 0.00 0.00 66 1016.3
20260902050522 87 159 1.0 2.0 0.00 0.00 0.00 65 1016.3
20260902050018 87 203 2.0 2.0 0.00 0.00 0.00 65 1016.3
20260902045513 87 179 3.0 5.0 0.00 0.00 0.00 65 1016.3
20260902045010 87 189 3.0 5.0 0.00 0.00 0.00 64 1016.5
20260902044504 87 191 0.0 1.0 0.00 0.00 0.00 64 1016.3
20260902044000 87 202 2.0 2.0 0.00 0.00 0.00 64 1016.3
20260902043455 87 101 3.0 3.0 0.00 0.00 0.00 63 1016.3
20260902042950 87 208 6.0 8.0 0.00 0.00 0.00 63 1016.2
20260902042449 88 197 2.0 2.0 0.00 0.00 0.00 62 1016.2
20260902041944 88 172 4.0 6.0 0.00 0.00 0.00 62 1016.1
20260902041439 88 144 3.0 5.0 0.00 0.00 0.00 61 1016.1
20260902040938 88 182 2.0 2.0 0.00 0.00 0.00 61 1016.3
20260902040433 89 161 2.0 3.0 0.00 0.00 0.00 60 1016.2
20260902035932 89 190 3.0 3.0 0.00 0.00 0.00 60 1016.1
20260902035427 89 105 1.0 2.0 0.00 0.00 0.00 59 1015.9
20260902034926 90 104 2.0 2.0 0.00 0.00 0.00 57 1015.9
20260902034421 90 142 1.0 2.0 0.00 0.00 0.00 56 1015.9
20260902033920 90 94 1.0 2.0 0.00 0.00 0.00 57 1015.9
20260902033414 89 197 0.0 0.0 0.00 0.00 0.00 59 1015.5
20260902032914 90 196 0.0 0.0 0.00 0.00 0.00 58 1015.6
20260902032408 90 194 0.0 0.0 0.00 0.00 0.00 58 1015.6
20260902031903 90 195 0.0 0.0 0.00 0.00 0.00 57 1015.7
20260902031359 90 199 0.0 1.0 0.00 0.00 0.00 57 1015.6
20260902030854 91 192 0.0 0.0 0.00 0.00 0.00 57 1015.3
20260902030348 91 188 0.0 0.0 0.00 0.00 0.00 56 1015.4
20260902025847 91 183 0.0 0.0 0.00 0.00 0.00 55 1015.3
20260902025344 91 196 0.0 0.0 0.00 0.00 0.00 54 1015.4
20260902024838 92 173 0.0 1.0 0.00 0.00 0.00 54 1015.5
20260902024334 92 147 1.0 2.0 0.00 0.00 0.00 54 1015.3
20260902023829 92 137 1.0 1.0 0.00 0.00 0.00 53 1015.2
20260902023324 92 157 1.0 2.0 0.00 0.00 0.00 53 1015.1
20260902022823 92 146 1.0 2.0 0.00 0.00 0.00 52 1015.1
20260902022318 92 195 1.0 2.0 0.00 0.00 0.00 52 1014.9
20260902021815 92 174 0.0 1.0 0.00 0.00 0.00 53 1014.7
20260902021309 92 198 0.0 0.0 0.00 0.00 0.00 53 1014.7
20260902020805 92 194 0.0 0.0 0.00 0.00 0.00 54 1014.7
20260902020301 92 183 0.0 0.0 0.00 0.00 0.00 54 1014.6
20260902015755 92 192 0.0 0.0 0.00 0.00 0.00 54 1014.6
20260902015252 92 194 0.0 0.0 0.00 0.00 0.00 53 1014.3
20260902014748 92 183 1.0 1.0 0.00 0.00 0.00 53 1014.4
20260902014244 92 184 0.0 1.0 0.00 0.00 0.00 53 1014.4
20260902013742 92 193 0.0 0.0 0.00 0.00 0.00 52 1014.1
20260902013238 93 193 0.0 0.0 0.00 0.00 0.00 52 1014.4
20260902012733 93 146 0.0 1.0 0.00 0.00 0.00 51 1014.5
20260902012229 93 191 1.0 1.0 0.00 0.00 0.00 50 1013.9
20260902011724 94 116 1.0 2.0 0.00 0.00 0.00 50 1014.0
20260902011224 94 176 1.0 2.0 0.00 0.00 0.00 49 1014.1
20260902010724 93 192 1.0 1.0 0.00 0.00 0.00 49 1013.7
20260902010220 94 197 0.0 0.0 0.00 0.00 0.00 49 1013.8
20260902005717 94 179 1.0 1.0 0.00 0.00 0.00 49 1013.9
20260902005214 94 194 0.0 1.0 0.00 0.00 0.00 48 1013.6
20260902004713 94 200 0.0 0.0 0.00 0.00 0.00 48 1014.1
20260902004208 95 189 1.0 1.0 0.00 0.00 0.00 47 1013.9
20260902003704 95 173 1.0 2.0 0.00 0.00 0.00 47 1014.0
20260902003159 95 185 1.0 2.0 0.00 0.00 0.00 47 1013.9
20260902002655 95 190 0.0 1.0 0.00 0.00 0.00 46 1013.9
20260902002154 96 119 0.0 0.0 0.00 0.00 0.00 46 1013.8
20260902001650 96 190 0.0 0.0 0.00 0.00 0.00 46 1014.0
20260902001149 96 168 0.0 0.0 0.00 0.00 0.00 46 1014.1
20260902000645 96 138 0.0 1.0 0.00 0.00 0.00 45 1014.0
20260902000140 96 192 1.0 1.0 0.00 0.00 0.00 45 1014.3
20260901235634 96 94 0.0 1.0 0.00 0.00 0.00 45 1014.4
20260901235130 97 126 0.0 1.0 0.00 0.00 0.00 44 1014.0
20260901234629 97 70 1.0 1.0 0.00 0.00 0.00 44 1014.3
20260901234124 96 68 1.0 1.0 0.00 0.00 0.00 44 1014.1
20260901233618 97 109 0.0 0.0 0.00 0.00 0.00 45 1014.4
20260901233109 97 134 1.0 2.0 0.00 0.00 0.00 45 1014.4
20260901232609 97 177 0.0 1.0 0.00 0.00 0.00 45 1014.3
20260901232104 97 199 1.0 1.0 0.00 0.00 0.00 45 1014.4
20260901231600 97 198 0.0 0.0 0.00 0.00 0.00 45 1014.6
20260901231056 97 100 0.0 0.0 0.00 0.00 0.00 45 1014.5
20260901230551 97 170 0.0 1.0 0.00 0.00 0.00 45 1014.3
20260901230046 97 133 1.0 1.0 0.00 0.00 0.00 45 1014.6
20260901225541 97 69 0.0 1.0 0.00 0.00 0.00 45 1014.6
20260901225041 97 137 1.0 2.0 0.00 0.00 0.00 45 1014.4
20260901224537 97 184 0.0 0.0 0.00 0.00 0.00 45 1014.7
20260901224033 97 187 0.0 1.0 0.00 0.00 0.00 45 1014.7
20260901223528 97 190 0.0 1.0 0.00 0.00 0.00 45 1014.5
20260901223024 97 208 1.0 1.0 0.00 0.00 0.00 45 1014.5
20260901222520 97 99 1.0 2.0 0.00 0.00 0.00 45 1014.6
20260901222015 97 194 0.0 0.0 0.00 0.00 0.00 45 1014.6
20260901221511 98 132 3.0 3.0 0.00 0.00 0.00 44 1014.3
20260901221006 98 149 2.0 2.0 0.00 0.00 0.00 43 1014.6
20260901220506 97 121 3.0 5.0 0.00 0.00 0.00 44 1014.6
20260901220004 98 67 1.0 1.0 0.00 0.00 0.00 44 1014.6
20260901215502 98 115 1.0 1.0 0.00 0.00 0.00 43 1014.7
20260901215002 98 127 1.0 2.0 0.00 0.00 0.00 43 1014.6
20260901214501 99 97 3.0 3.0 0.00 0.00 0.00 43 1014.9
20260901213955 100 151 0.0 1.0 0.00 0.00 0.00 42 1014.7
20260901213450 100 170 3.0 3.0 0.00 0.00 0.00 41 1014.8
20260901212949 100 89 1.0 1.0 0.00 0.00 0.00 41 1014.8
20260901212445 98 155 3.0 3.0 0.00 0.00 0.00 43 1014.9
20260901211942 98 163 6.0 8.0 0.00 0.00 0.00 42 1014.9
20260901211437 98 198 4.0 6.0 0.00 0.00 0.00 43 1015.1
20260901210933 98 151 0.0 1.0 0.00 0.00 0.00 43 1015.1
20260901210428 99 137 2.0 2.0 0.00 0.00 0.00 42 1015.2
20260901205925 100 357 1.0 1.0 0.00 0.00 0.00 42 1015.1
20260901205425 101 231 2.0 2.0 0.00 0.00 0.00 41 1015.1
20260901204919 102 208 3.0 3.0 0.00 0.00 0.00 41 1015.0
20260901204416 102 217 1.0 3.0 0.00 0.00 0.00 41 1015.2
20260901203916 101 191 0.0 1.0 0.00 0.00 0.00 41 1015.2
20260901203410 102 152 0.0 0.0 0.00 0.00 0.00 42 1015.4
20260901202906 101 176 0.0 0.0 0.00 0.00 0.00 42 1015.4
20260901202400 101 181 3.0 3.0 0.00 0.00 0.00 42 1015.4
20260901201856 100 190 0.0 1.0 0.00 0.00 0.00 43 1015.3
20260901201356 99 117 3.0 5.0 0.00 0.00 0.00 43 1015.5
20260901200850 101 75 3.0 5.0 0.00 0.00 0.00 41 1015.5
20260901200345 100 243 0.0 1.0 0.00 0.00 0.00 42 1015.7
20260901195844 101 156 0.0 0.0 0.00 0.00 0.00 42 1015.8
20260901195337 99 274 3.0 5.0 0.00 0.00 0.00 43 1015.9
20260901194833 100 74 1.0 2.0 0.00 0.00 0.00 42 1016.1
20260901194332 99 113 3.0 3.0 0.00 0.00 0.00 43 1016.0
20260901193829 99 192 7.0 8.0 0.00 0.00 0.00 43 1015.9
20260901193328 100 152 3.0 5.0 0.00 0.00 0.00 43 1016.1
20260901192822 99 117 3.0 5.0 0.00 0.00 0.00 45 1016.1
20260901192318 100 124 1.0 2.0 0.00 0.00 0.00 43 1016.1
20260901191815 100 221 1.0 1.0 0.00 0.00 0.00 44 1016.3
20260901191309 100 175 2.0 2.0 0.00 0.00 0.00 43 1016.6
20260901190806 98 52 1.0 2.0 0.00 0.00 0.00 44 1016.4
20260901190300 98 84 1.0 1.0 0.00 0.00 0.00 44 1016.4
20260901185758 99 59 2.0 3.0 0.00 0.00 0.00 44 1016.7
20260901185257 99 203 1.0 1.0 0.00 0.00 0.00 44 1016.7
20260901184753 98 149 1.0 1.0 0.00 0.00 0.00 44 1016.8
20260901184248 98 121 0.0 1.0 0.00 0.00 0.00 45 1017.1
20260901183744 98 132 1.0 2.0 0.00 0.00 0.00 44 1017.1
20260901183243 97 115 1.0 1.0 0.00 0.00 0.00 46 1017.1
20260901182739 97 189 1.0 1.0 0.00 0.00 0.00 45 1017.1
20260901182238 98 73 2.0 3.0 0.00 0.00 0.00 45 1017.4
20260901181733 98 76 1.0 1.0 0.00 0.00 0.00 45 1017.3
20260901181228 96 141 1.0 2.0 0.00 0.00 0.00 46 1017.4
20260901180727 99 72 1.0 1.0 0.00 0.00 0.00 44 1017.4
20260901180226 97 185 1.0 1.0 0.00 0.00 0.00 46 1017.7
20260901175725 96 170 3.0 3.0 0.00 0.00 0.00 48 1017.7
20260901175221 96 171 1.0 1.0 0.00 0.00 0.00 49 1017.6
20260901174715 96 69 3.0 5.0 0.00 0.00 0.00 49 1017.9
20260901174211 95 216 0.0 1.0 0.00 0.00 0.00 50 1017.8
20260901173706 96 79 3.0 3.0 0.00 0.00 0.00 48 1018.1
20260901173201 96 61 0.0 1.0 0.00 0.00 0.00 46 1018.1
20260901172658 97 161 1.0 2.0 0.00 0.00 0.00 47 1018.0
20260901172156 97 182 0.0 0.0 0.00 0.00 0.00 48 1018.1
20260901171649 98 59 2.0 2.0 0.00 0.00 0.00 47 1018.2
20260901171148 97 95 1.0 2.0 0.00 0.00 0.00 50 1018.1
20260901170643 96 32 1.0 1.0 0.00 0.00 0.00 50 1018.4
20260901170143 94 209 0.0 1.0 0.00 0.00 0.00 53 1018.3
20260901165641 94 104 0.0 1.0 0.00 0.00 0.00 54 1018.5
20260901165132 93 83 3.0 5.0 0.00 0.00 0.00 53 1018.3
20260901164628 93 246 1.0 1.0 0.00 0.00 0.00 53 1018.6
20260901164122 93 205 1.0 1.0 0.00 0.00 0.00 53 1018.5
20260901163618 94 199 2.0 3.0 0.00 0.00 0.00 52 1018.6
20260901163116 96 170 2.0 2.0 0.00 0.00 0.00 51 1018.8
20260901162612 96 187 1.0 3.0 0.00 0.00 0.00 51 1018.6
20260901162106 95 127 1.0 1.0 0.00 0.00 0.00 52 1018.8
20260901161605 95 147 2.0 2.0 0.00 0.00 0.00 51 1018.5
20260901161104 94 205 0.0 0.0 0.00 0.00 0.00 54 1018.9
20260901160601 94 167 1.0 1.0 0.00 0.00 0.00 53 1018.5
20260901160056 93 174 1.0 1.0 0.00 0.00 0.00 54 1018.4
20260901155555 93 210 2.0 2.0 0.00 0.00 0.00 55 1018.5
20260901155051 93 175 2.0 2.0 0.00 0.00 0.00 55 1018.5
20260901154550 93 192 1.0 2.0 0.00 0.00 0.00 55 1018.6
20260901154045 92 168 1.0 2.0 0.00 0.00 0.00 56 1018.6
20260901153540 92 193 2.0 3.0 0.00 0.00 0.00 56 1018.6
20260901153034 92 178 4.0 6.0 0.00 0.00 0.00 56 1018.6
20260901152529 92 267 2.0 2.0 0.00 0.00 0.00 57 1018.5
20260901152028 91 197 1.0 1.0 0.00 0.00 0.00 58 1018.6
20260901151524 91 275 2.0 3.0 0.00 0.00 0.00 58 1018.7
20260901151023 90 167 6.0 9.0 0.00 0.00 0.00 59 1018.6
20260901150521 91 271 1.0 2.0 0.00 0.00 0.00 59 1018.5
20260901150020 90 255 1.0 1.0 0.00 0.00 0.00 60 1018.7
20260901145513 90 155 3.0 5.0 0.00 0.00 0.00 61 1018.7
20260901145013 91 160 1.0 1.0 0.00 0.00 0.00 59 1018.6
20260901144508 90 202 0.0 1.0 0.00 0.00 0.00 61 1018.8
20260901144003 89 170 2.0 2.0 0.00 0.00 0.00 62 1018.7
20260901143459 89 243 1.0 2.0 0.00 0.00 0.00 63 1018.8
20260901142955 89 202 0.0 1.0 0.00 0.00 0.00 63 1019.0
20260901142450 88 201 0.0 0.0 0.00 0.00 0.00 65 1018.7
20260901141945 88 208 2.0 3.0 0.00 0.00 0.00 65 1018.7
20260901141444 87 162 1.0 2.0 0.00 0.00 0.00 66 1018.5
20260901140940 87 180 1.0 2.0 0.00 0.00 0.00 67 1018.6
20260901140437 87 162 1.0 1.0 0.00 0.00 0.00 66 1018.8
20260901135932 86 194 0.0 1.0 0.00 0.00 0.00 68 1018.7
20260901135427 85 135 2.0 2.0 0.00 0.00 0.00 69 1018.8
20260901134923 85 147 1.0 1.0 0.00 0.00 0.00 69 1018.7
20260901134418 85 196 0.0 0.0 0.00 0.00 0.00 70 1018.7
20260901133918 84 179 1.0 1.0 0.00 0.00 0.00 71 1018.6
20260901133418 84 209 2.0 2.0 0.00 0.00 0.00 71 1018.9
20260901132916 83 192 0.0 1.0 0.00 0.00 0.00 71 1018.8
20260901132411 83 219 0.0 1.0 0.00 0.00 0.00 71 1018.7
20260901131910 83 190 1.0 1.0 0.00 0.00 0.00 72 1018.8
20260901131410 83 218 1.0 2.0 0.00 0.00 0.00 72 1018.7
20260901130906 82 138 1.0 2.0 0.00 0.00 0.00 73 1018.5
20260901130400 82 185 0.0 1.0 0.00 0.00 0.00 73 1018.7
20260901125858 82 122 2.0 2.0 0.00 0.00 0.00 73 1018.8
20260901125357 81 185 1.0 1.0 0.00 0.00 0.00 73 1018.5
20260901124852 81 183 0.0 0.0 0.00 0.00 0.00 73 1018.7
20260901124348 81 200 0.0 0.0 0.00 0.00 0.00 74 1018.5
20260901123847 81 196 0.0 0.0 0.00 0.00 0.00 74 1018.3
20260901123342 80 170 1.0 1.0 0.00 0.00 0.00 75 1018.1
20260901122840 80 179 0.0 1.0 0.00 0.00 0.00 75 1018.3
20260901122335 80 195 0.0 0.0 0.00 0.00 0.00 75 1018.1
20260901121834 80 196 0.0 0.0 0.00 0.00 0.00 75 1017.9
20260901121330 80 185 0.0 0.0 0.00 0.00 0.00 75 1018.0
20260901120825 80 195 0.0 0.0 0.00 0.00 0.00 75 1017.9
20260901120319 80 194 0.0 0.0 0.00 0.00 0.00 75 1017.9
20260901115815 80 198 0.0 0.0 0.00 0.00 0.00 74 1017.7
20260901115310 80 198 1.0 1.0 0.00 0.00 0.00 74 1017.6
20260901114807 80 198 0.0 1.0 0.00 0.00 0.00 74 1017.7
20260901114302 80 192 0.0 0.0 0.00 0.00 0.00 73 1017.8
20260901113801 80 198 0.0 1.0 0.00 0.00 0.00 73 1017.5
20260901113255 81 203 0.0 0.0 0.00 0.00 0.00 73 1017.5